Location: ??????
(38.1303°N, 24.0039°E)
Time: 11:33:21
(UTC+00:00)

X-37B - Pass Details

Date: 20 June 2021
Orbit: 383 x 392 km, 45.0° (Epoch: 01 July)

Event Time Altitude Azimuth Distance (km) Brightness Sun altitude
Rises 02:02:50 0° 298° (WNW) 2,261 4.2 -10.1°
Reaches altitude 10° 02:04:55 10° 299° (WNW) 1,406 3.2 -9.8°
Maximum altitude 02:08:04 76° 26° (NNE) 399 0.7 -9.3°
Drops below altitude 10° 02:11:14 10° 113° (ESE) 1,405 3.8 -8.8°
Sets 02:13:18 0° 115° (ESE) 2,259 4.8 -8.5°
